Time,TemperatureF,DewpointF,PressureIn,WindDirection,WindDirectionDegrees,WindSpeedMPH,WindSpeedGustMPH,Humidity,HourlyPrecipIn,Conditions,Clouds,dailyrainin,SoftwareType,DateUTC
2013-10-30 00:01:00,77.9,68.2,30.08,South,176,8.0,10.0,72,0.00,,---,0.00,VWS V14.01,2013-10-30 04:01:00,
2013-10-30 00:02:00,77.9,68.2,30.08,South,176,9.0,9.0,72,0.00,,---,0.00,VWS V14.01,2013-10-30 04:02:00,
2013-10-30 00:07:00,77.9,68.2,30.08,South,176,1.0,6.0,72,0.00,,---,0.00,VWS V14.01,2013-10-30 04:07:00,
2013-10-30 00:12:00,77.9,68.2,30.08,South,176,4.0,7.0,72,0.00,,---,0.00,VWS V14.01,2013-10-30 04:12:00,
2013-10-30 00:17:00,77.9,67.8,30.07,South,176,2.0,6.0,71,0.00,,---,0.00,VWS V14.01,2013-10-30 04:17:00,
2013-10-30 00:22:00,78.0,68.7,30.07,South,176,1.0,7.0,73,0.00,,---,0.00,VWS V14.01,2013-10-30 04:22:00,
2013-10-30 00:27:00,78.0,68.7,30.07,South,176,0.0,7.0,73,0.00,,---,0.00,VWS V14.01,2013-10-30 04:27:00,
2013-10-30 00:32:00,77.9,68.2,30.07,South,176,12.0,12.0,72,0.00,,---,0.00,VWS V14.01,2013-10-30 04:32:00,
2013-10-30 00:37:00,77.8,68.5,30.07,South,176,9.0,9.0,73,0.00,,---,0.00,VWS V14.01,2013-10-30 04:37:00,
2013-10-30 00:42:00,77.7,67.6,30.07,South,176,9.0,9.0,71,0.00,,---,0.00,VWS V14.01,2013-10-30 04:42:00,
2013-10-30 00:47:00,77.7,68.0,30.07,South,176,5.0,7.0,72,0.00,,---,0.00,VWS V14.01,2013-10-30 04:47:00,
2013-10-30 00:52:00,77.7,68.0,30.07,South,176,5.0,8.0,72,0.00,,---,0.00,VWS V14.01,2013-10-30 04:52:00,
2013-10-30 00:57:00,77.6,67.9,30.07,South,176,8.0,8.0,72,0.00,,---,0.00,VWS V14.01,2013-10-30 04:57:00,
2013-10-30 01:02:00,77.7,68.0,30.07,South,176,1.0,8.0,72,0.00,,---,0.00,VWS V14.01,2013-10-30 05:02:00,
2013-10-30 01:07:00,77.6,67.9,30.07,South,176,1.0,6.0,72,0.00,,---,0.00,VWS V14.01,2013-10-30 05:07:00,
2013-10-30 01:12:00,77.7,68.4,30.07,South,176,1.0,4.0,73,0.00,,---,0.00,VWS V14.01,2013-10-30 05:12:00,
2013-10-30 01:17:00,77.6,67.9,30.06,South,176,0.0,10.0,72,0.00,,---,0.00,VWS V14.01,2013-10-30 05:17:00,
2013-10-30 01:22:00,77.6,68.3,30.06,South,176,5.0,7.0,73,0.00,,---,0.00,VWS V14.01,2013-10-30 05:22:00,
2013-10-30 01:27:00,77.6,68.3,30.06,South,176,0.0,1.0,73,0.00,,---,0.00,VWS V14.01,2013-10-30 05:27:00,
2013-10-30 01:32:00,77.6,68.3,30.06,South,176,4.0,7.0,73,0.00,,---,0.00,VWS V14.01,2013-10-30 05:32:00,
2013-10-30 01:37:00,77.6,68.3,30.06,South,176,0.0,5.0,73,0.00,,---,0.00,VWS V14.01,2013-10-30 05:37:00,
2013-10-30 01:42:00,77.5,67.8,30.06,South,176,1.0,7.0,72,0.00,,---,0.00,VWS V14.01,2013-10-30 05:42:00,
2013-10-30 01:47:00,77.5,68.2,30.05,South,176,4.0,6.0,73,0.00,,---,0.00,VWS V14.01,2013-10-30 05:47:00,
2013-10-30 01:52:00,77.5,67.8,30.05,South,176,0.0,4.0,72,0.00,,---,0.00,VWS V14.01,2013-10-30 05:52:00,
2013-10-30 01:57:00,77.5,68.6,30.05,South,176,2.0,8.0,74,0.00,,---,0.00,VWS V14.01,2013-10-30 05:57:00,
2013-10-30 02:02:00,77.5,68.2,30.05,South,176,7.0,7.0,73,0.00,,---,0.00,VWS V14.01,2013-10-30 06:02:00,
2013-10-30 02:07:00,77.5,68.6,30.05,South,176,0.0,1.0,74,0.00,,---,0.00,VWS V14.01,2013-10-30 06:07:00,
2013-10-30 02:12:00,77.4,68.5,30.05,South,176,4.0,7.0,74,0.00,,---,0.00,VWS V14.01,2013-10-30 06:12:00,
2013-10-30 02:17:00,77.4,68.5,30.05,South,176,2.0,7.0,74,0.00,,---,0.00,VWS V14.01,2013-10-30 06:17:00,
2013-10-30 02:22:00,77.3,68.0,30.05,South,176,0.0,2.0,73,0.00,,---,0.00,VWS V14.01,2013-10-30 06:22:00,
2013-10-30 02:27:00,77.4,68.9,30.05,South,176,5.0,6.0,75,0.00,,---,0.00,VWS V14.01,2013-10-30 06:27:00,
2013-10-30 02:32:00,77.3,68.4,30.05,South,176,0.0,5.0,74,0.00,,---,0.00,VWS V14.01,2013-10-30 06:32:00,
2013-10-30 02:37:00,77.3,68.4,30.05,South,176,0.0,6.0,74,0.00,,---,0.00,VWS V14.01,2013-10-30 06:37:00,
2013-10-30 02:42:00,77.3,68.4,30.05,South,176,2.0,5.0,74,0.00,,---,0.00,VWS V14.01,2013-10-30 06:42:00,
2013-10-30 02:47:00,77.3,68.4,30.05,South,176,0.0,6.0,74,0.00,,---,0.00,VWS V14.01,2013-10-30 06:47:00,
2013-10-30 02:52:00,77.3,68.8,30.05,South,176,1.0,5.0,75,0.00,,---,0.00,VWS V14.01,2013-10-30 06:52:00,
2013-10-30 02:57:00,77.2,68.3,30.05,South,176,2.0,4.0,74,0.00,,---,0.00,VWS V14.01,2013-10-30 06:57:00,
2013-10-30 03:02:00,77.2,68.3,30.05,South,176,1.0,6.0,74,0.00,,---,0.00,VWS V14.01,2013-10-30 07:02:00,
2013-10-30 03:07:00,77.1,67.8,30.05,South,176,4.0,6.0,73,0.00,,---,0.00,VWS V14.01,2013-10-30 07:07:00,
2013-10-30 03:12:00,77.1,68.2,30.05,South,176,4.0,6.0,74,0.00,,---,0.00,VWS V14.01,2013-10-30 07:12:00,
2013-10-30 03:17:00,77.1,68.2,30.05,South,176,2.0,11.0,74,0.00,,---,0.00,VWS V14.01,2013-10-30 07:17:00,
2013-10-30 03:22:00,77.1,67.8,30.05,South,176,0.0,6.0,73,0.00,,---,0.00,VWS V14.01,2013-10-30 07:22:00,
2013-10-30 03:27:00,77.1,68.2,30.05,South,176,1.0,5.0,74,0.00,,---,0.00,VWS V14.01,2013-10-30 07:27:00,
2013-10-30 03:32:00,77.1,67.8,30.04,South,176,6.0,6.0,73,0.00,,---,0.00,VWS V14.01,2013-10-30 07:32:00,
2013-10-30 03:37:00,77.1,68.2,30.04,South,176,1.0,1.0,74,0.00,,---,0.00,VWS V14.01,2013-10-30 07:37:00,
2013-10-30 03:42:00,77.1,67.8,30.04,South,176,2.0,6.0,73,0.00,,---,0.00,VWS V14.01,2013-10-30 07:42:00,
2013-10-30 03:47:00,77.0,67.3,30.04,South,176,0.0,1.0,72,0.00,,---,0.00,VWS V14.01,2013-10-30 07:47:00,
2013-10-30 03:52:00,77.0,66.5,30.04,South,176,5.0,5.0,70,0.00,,---,0.00,VWS V14.01,2013-10-30 07:52:00,
2013-10-30 03:57:00,77.1,67.4,30.04,South,176,5.0,5.0,72,0.00,,---,0.00,VWS V14.01,2013-10-30 07:57:00,
2013-10-30 04:02:00,77.1,67.0,30.03,South,176,5.0,5.0,71,0.00,,---,0.00,VWS V14.01,2013-10-30 08:02:00,
2013-10-30 04:07:00,77.1,67.0,30.03,South,176,1.0,6.0,71,0.00,,---,0.00,VWS V14.01,2013-10-30 08:07:00,
2013-10-30 04:12:00,77.1,67.0,30.03,South,176,2.0,6.0,71,0.00,,---,0.00,VWS V14.01,2013-10-30 08:12:00,
2013-10-30 04:17:00,77.1,67.0,30.03,South,176,0.0,2.0,71,0.00,,---,0.00,VWS V14.01,2013-10-30 08:17:00,
2013-10-30 04:22:00,77.1,67.0,30.03,South,176,0.0,2.0,71,0.00,,---,0.00,VWS V14.01,2013-10-30 08:22:00,
2013-10-30 04:27:00,77.1,67.0,30.03,South,176,0.0,2.0,71,0.00,,---,0.00,VWS V14.01,2013-10-30 08:27:00,
2013-10-30 04:32:00,77.1,67.4,30.03,South,176,0.0,4.0,72,0.00,,---,0.00,VWS V14.01,2013-10-30 08:32:00,
2013-10-30 04:37:00,77.1,67.4,30.03,South,176,0.0,5.0,72,0.00,,---,0.00,VWS V14.01,2013-10-30 08:37:00,
2013-10-30 04:42:00,77.1,67.8,30.03,South,176,0.0,2.0,73,0.00,,---,0.00,VWS V14.01,2013-10-30 08:42:00,
2013-10-30 04:47:00,77.2,68.3,30.03,South,176,0.0,1.0,74,0.00,,---,0.00,VWS V14.01,2013-10-30 08:47:00,
2013-10-30 04:52:00,77.1,68.2,30.03,South,176,0.0,1.0,74,0.00,,---,0.00,VWS V14.01,2013-10-30 08:52:00,
2013-10-30 04:57:00,77.2,68.3,30.03,South,176,5.0,5.0,74,0.00,,---,0.00,VWS V14.01,2013-10-30 08:57:00,
2013-10-30 05:02:00,77.2,68.3,30.03,South,176,4.0,4.0,74,0.00,,---,0.00,VWS V14.01,2013-10-30 09:02:00,
2013-10-30 05:07:00,77.3,68.4,30.03,South,176,5.0,8.0,74,0.00,,---,0.00,VWS V14.01,2013-10-30 09:07:00,
2013-10-30 05:12:00,77.2,67.9,30.03,South,176,2.0,2.0,73,0.00,,---,0.00,VWS V14.01,2013-10-30 09:12:00,
2013-10-30 05:17:00,77.3,68.0,30.03,South,176,4.0,5.0,73,0.00,,---,0.00,VWS V14.01,2013-10-30 09:17:00,
2013-10-30 05:22:00,77.3,68.0,30.03,South,176,0.0,8.0,73,0.00,,---,0.00,VWS V14.01,2013-10-30 09:22:00,
2013-10-30 05:27:00,77.3,68.0,30.03,South,176,0.0,7.0,73,0.00,,---,0.00,VWS V14.01,2013-10-30 09:27:00,
2013-10-30 05:32:00,77.4,68.1,30.04,South,176,0.0,8.0,73,0.00,,---,0.00,VWS V14.01,2013-10-30 09:32:00,
2013-10-30 05:37:00,77.4,68.5,30.04,South,176,4.0,7.0,74,0.00,,---,0.00,VWS V14.01,2013-10-30 09:37:00,
2013-10-30 05:42:00,77.5,68.6,30.04,South,176,2.0,4.0,74,0.00,,---,0.00,VWS V14.01,2013-10-30 09:42:00,
2013-10-30 05:47:00,77.6,69.1,30.04,South,176,0.0,1.0,75,0.00,,---,0.00,VWS V14.01,2013-10-30 09:47:00,
2013-10-30 05:52:00,77.5,68.6,30.04,South,176,1.0,7.0,74,0.00,,---,0.00,VWS V14.01,2013-10-30 09:52:00,
2013-10-30 05:57:00,77.5,68.2,30.04,South,176,7.0,7.0,73,0.00,,---,0.00,VWS V14.01,2013-10-30 09:57:00,
2013-10-30 06:02:00,77.4,67.3,30.05,South,176,2.0,5.0,71,0.00,,---,0.00,VWS V14.01,2013-10-30 10:02:00,
2013-10-30 06:07:00,77.5,67.8,30.05,South,176,6.0,6.0,72,0.00,,---,0.00,VWS V14.01,2013-10-30 10:07:00,
2013-10-30 06:12:00,77.5,67.4,30.05,South,176,1.0,2.0,71,0.00,,---,0.00,VWS V14.01,2013-10-30 10:12:00,
2013-10-30 06:17:00,77.5,67.8,30.05,South,176,2.0,5.0,72,0.00,,---,0.00,VWS V14.01,2013-10-30 10:17:00,
2013-10-30 06:22:00,77.4,68.1,30.05,South,176,0.0,1.0,73,0.00,,---,0.00,VWS V14.01,2013-10-30 10:22:00,
2013-10-30 06:27:00,77.3,68.0,30.05,South,176,5.0,7.0,73,0.00,,---,0.00,VWS V14.01,2013-10-30 10:27:00,
2013-10-30 06:32:00,77.3,68.0,30.05,South,176,0.0,6.0,73,0.00,,---,0.00,VWS V14.01,2013-10-30 10:32:00,
2013-10-30 06:37:00,77.3,68.0,30.05,South,176,0.0,1.0,73,0.00,,---,0.00,VWS V14.01,2013-10-30 10:37:00,
2013-10-30 06:42:00,77.2,67.9,30.05,South,176,0.0,1.0,73,0.00,,---,0.00,VWS V14.01,2013-10-30 10:42:00,
2013-10-30 06:47:00,77.1,67.8,30.06,South,176,0.0,2.0,73,0.00,,---,0.00,VWS V14.01,2013-10-30 10:47:00,
2013-10-30 06:52:00,77.2,67.9,30.06,South,176,0.0,1.0,73,0.00,,---,0.00,VWS V14.01,2013-10-30 10:52:00,
2013-10-30 06:57:00,77.2,68.3,30.06,South,176,0.0,1.0,74,0.00,,---,0.00,VWS V14.01,2013-10-30 10:57:00,
2013-10-30 07:02:00,77.1,67.8,30.06,South,176,0.0,1.0,73,0.00,,---,0.00,VWS V14.01,2013-10-30 11:02:00,
2013-10-30 07:07:00,77.1,67.8,30.06,South,176,0.0,6.0,73,0.00,,---,0.00,VWS V14.01,2013-10-30 11:07:00,
2013-10-30 07:12:00,77.1,67.8,30.06,South,176,0.0,4.0,73,0.00,,---,0.00,VWS V14.01,2013-10-30 11:12:00,
2013-10-30 07:17:00,77.1,67.4,30.06,South,176,1.0,5.0,72,0.00,,---,0.00,VWS V14.01,2013-10-30 11:17:00,
2013-10-30 07:22:00,77.2,67.9,30.06,South,176,0.0,0.0,73,0.00,,---,0.00,VWS V14.01,2013-10-30 11:22:00,
2013-10-30 07:27:00,77.2,67.9,30.06,South,176,0.0,2.0,73,0.00,,---,0.00,VWS V14.01,2013-10-30 11:27:00,
2013-10-30 07:32:00,77.2,67.9,30.07,South,176,0.0,6.0,73,0.00,,---,0.00,VWS V14.01,2013-10-30 11:32:00,
2013-10-30 07:37:00,77.1,67.8,30.07,South,176,0.0,1.0,73,0.00,,---,0.00,VWS V14.01,2013-10-30 11:37:00,
2013-10-30 07:42:00,77.2,67.9,30.07,South,176,0.0,0.0,73,0.00,,---,0.00,VWS V14.01,2013-10-30 11:42:00,
2013-10-30 07:47:00,77.2,67.9,30.07,South,176,0.0,4.0,73,0.00,,---,0.00,VWS V14.01,2013-10-30 11:47:00,
2013-10-30 07:52:00,77.4,68.5,30.07,South,176,1.0,1.0,74,0.00,,---,0.00,VWS V14.01,2013-10-30 11:52:00,
2013-10-30 07:57:00,77.5,68.2,30.07,South,176,0.0,1.0,73,0.00,,---,0.00,VWS V14.01,2013-10-30 11:57:00,
2013-10-30 08:02:00,77.5,68.2,30.07,South,176,0.0,6.0,73,0.00,,---,0.00,VWS V14.01,2013-10-30 12:02:00,
2013-10-30 08:07:00,77.6,68.3,30.07,South,176,4.0,4.0,73,0.00,,---,0.00,VWS V14.01,2013-10-30 12:07:00,
2013-10-30 08:12:00,77.6,67.9,30.07,South,176,5.0,5.0,72,0.00,,---,0.00,VWS V14.01,2013-10-30 12:12:00,
2013-10-30 08:17:00,77.6,67.5,30.07,South,176,1.0,5.0,71,0.00,,---,0.00,VWS V14.01,2013-10-30 12:17:00,
2013-10-30 08:22:00,78.0,67.8,30.07,South,176,0.0,0.0,71,0.00,,---,0.00,VWS V14.01,2013-10-30 12:22:00,
2013-10-30 08:27:00,78.1,67.9,30.07,South,176,0.0,5.0,71,0.00,,---,0.00,VWS V14.01,2013-10-30 12:27:00,
2013-10-30 08:32:00,78.3,66.9,30.07,South,176,1.0,6.0,68,0.00,,---,0.00,VWS V14.01,2013-10-30 12:32:00,
2013-10-30 08:37:00,78.5,67.5,30.07,South,176,0.0,2.0,69,0.00,,---,0.00,VWS V14.01,2013-10-30 12:37:00,
2013-10-30 08:42:00,78.7,67.7,30.07,South,176,6.0,6.0,69,0.00,,---,0.00,VWS V14.01,2013-10-30 12:42:00,
2013-10-30 08:47:00,78.7,68.5,30.08,South,176,0.0,1.0,71,0.00,,---,0.00,VWS V14.01,2013-10-30 12:47:00,
2013-10-30 08:52:00,78.7,68.1,30.08,South,176,0.0,4.0,70,0.00,,---,0.00,VWS V14.01,2013-10-30 12:52:00,
2013-10-30 08:57:00,78.9,68.3,30.08,South,176,0.0,1.0,70,0.00,,---,0.00,VWS V14.01,2013-10-30 12:57:00,
2013-10-30 09:02:00,78.9,68.3,30.08,South,176,0.0,4.0,70,0.00,,---,0.00,VWS V14.01,2013-10-30 13:02:00,
2013-10-30 09:07:00,78.7,68.5,30.08,South,176,0.0,0.0,71,0.00,,---,0.00,VWS V14.01,2013-10-30 13:07:00,
2013-10-30 09:12:00,78.7,68.5,30.08,South,176,0.0,0.0,71,0.00,,---,0.00,VWS V14.01,2013-10-30 13:12:00,
2013-10-30 09:17:00,78.8,69.0,30.08,South,176,0.0,1.0,72,0.00,,---,0.00,VWS V14.01,2013-10-30 13:17:00,
2013-10-30 09:22:00,78.9,68.7,30.08,South,176,0.0,0.0,71,0.00,,---,0.00,VWS V14.01,2013-10-30 13:22:00,
2013-10-30 09:27:00,79.0,69.2,30.08,South,176,2.0,6.0,72,0.00,,---,0.00,VWS V14.01,2013-10-30 13:27:00,
2013-10-30 09:32:00,79.5,68.9,30.08,South,176,4.0,7.0,70,0.00,,---,0.00,VWS V14.01,2013-10-30 13:32:00,
2013-10-30 09:37:00,79.9,68.8,30.08,South,176,0.0,5.0,69,0.00,,---,0.00,VWS V14.01,2013-10-30 13:37:00,
2013-10-30 09:42:00,79.6,68.5,30.08,South,176,0.0,4.0,69,0.00,,---,0.00,VWS V14.01,2013-10-30 13:42:00,
2013-10-30 09:47:00,79.2,67.3,30.10,South,176,0.0,2.0,67,0.00,,---,0.00,VWS V14.01,2013-10-30 13:47:00,
2013-10-30 09:52:00,79.1,67.6,30.10,South,176,0.0,2.0,68,0.00,,---,0.00,VWS V14.01,2013-10-30 13:52:00,
2013-10-30 09:57:00,78.9,67.4,30.10,South,176,0.0,1.0,68,0.00,,---,0.00,VWS V14.01,2013-10-30 13:57:00,
2013-10-30 10:02:00,79.0,68.0,30.09,South,177,2.0,5.0,69,0.00,,---,0.00,VWS V14.01,2013-10-30 14:02:00,
2013-10-30 10:07:00,79.4,68.3,30.09,South,176,1.0,1.0,69,0.00,,---,0.00,VWS V14.01,2013-10-30 14:07:00,
2013-10-30 10:12:00,80.0,68.1,30.09,South,176,0.0,2.0,67,0.00,,---,0.00,VWS V14.01,2013-10-30 14:12:00,
2013-10-30 10:17:00,80.5,67.2,30.09,South,176,0.0,2.0,64,0.00,,---,0.00,VWS V14.01,2013-10-30 14:17:00,
2013-10-30 10:22:00,80.8,68.4,30.09,South,177,0.0,1.0,66,0.00,,---,0.00,VWS V14.01,2013-10-30 14:22:00,
2013-10-30 10:27:00,81.3,68.4,30.09,South,176,0.0,0.0,65,0.00,,---,0.00,VWS V14.01,2013-10-30 14:27:00,
2013-10-30 10:32:00,80.9,68.5,30.11,South,176,0.0,5.0,66,0.00,,---,0.00,VWS V14.01,2013-10-30 14:32:00,
2013-10-30 10:37:00,80.5,68.5,30.11,South,176,6.0,7.0,67,0.00,,---,0.00,VWS V14.01,2013-10-30 14:37:00,
2013-10-30 10:42:00,80.9,69.4,30.11,South,176,1.0,6.0,68,0.00,,---,0.00,VWS V14.01,2013-10-30 14:42:00,
2013-10-30 10:47:00,81.5,69.1,30.11,South,176,0.0,4.0,66,0.00,,---,0.00,VWS V14.01,2013-10-30 14:47:00,
2013-10-30 10:52:00,81.6,69.2,30.11,South,176,0.0,6.0,66,0.00,,---,0.00,VWS V14.01,2013-10-30 14:52:00,
2013-10-30 10:57:00,81.4,69.4,30.11,South,176,4.0,8.0,67,0.00,,---,0.00,VWS V14.01,2013-10-30 14:57:00,
2013-10-30 11:02:00,81.6,69.2,30.11,South,176,5.0,7.0,66,0.00,,---,0.00,VWS V14.01,2013-10-30 15:02:00,
2013-10-30 11:07:00,81.5,68.2,30.11,South,176,1.0,2.0,64,0.00,,---,0.00,VWS V14.01,2013-10-30 15:07:00,
2013-10-30 11:12:00,81.9,68.5,30.11,South,176,0.0,4.0,64,0.00,,---,0.00,VWS V14.01,2013-10-30 15:12:00,
2013-10-30 11:17:00,82.2,68.8,30.11,South,176,0.0,0.0,64,0.00,,---,0.00,VWS V14.01,2013-10-30 15:17:00,
2013-10-30 11:22:00,82.1,68.7,30.11,South,176,0.0,0.0,64,0.00,,---,0.00,VWS V14.01,2013-10-30 15:22:00,
2013-10-30 11:27:00,82.3,68.9,30.11,South,176,2.0,5.0,64,0.00,,---,0.00,VWS V14.01,2013-10-30 15:27:00,
2013-10-30 11:32:00,82.1,69.6,30.11,South,176,0.0,2.0,66,0.00,,---,0.00,VWS V14.01,2013-10-30 15:32:00,
2013-10-30 11:37:00,82.3,68.9,30.11,South,176,0.0,1.0,64,0.00,,---,0.00,VWS V14.01,2013-10-30 15:37:00,
2013-10-30 11:42:00,82.4,69.5,30.11,South,176,0.0,7.0,65,0.00,,---,0.00,VWS V14.01,2013-10-30 15:42:00,
2013-10-30 11:47:00,82.0,69.1,30.11,South,176,4.0,8.0,65,0.00,,---,0.00,VWS V14.01,2013-10-30 15:47:00,
2013-10-30 11:52:00,82.2,69.7,30.11,South,176,7.0,9.0,66,0.00,,---,0.00,VWS V14.01,2013-10-30 15:52:00,
2013-10-30 11:57:00,82.2,69.3,30.11,South,176,0.0,6.0,65,0.00,,---,0.00,VWS V14.01,2013-10-30 15:57:00,
2013-10-30 12:02:00,82.4,69.5,30.10,South,176,0.0,1.0,65,0.00,,---,0.00,VWS V14.01,2013-10-30 16:02:00,
2013-10-30 12:07:00,81.8,68.9,30.10,South,176,6.0,8.0,65,0.00,,---,0.00,VWS V14.01,2013-10-30 16:07:00,
2013-10-30 12:12:00,81.4,68.5,30.10,South,176,6.0,9.0,65,0.00,,---,0.00,VWS V14.01,2013-10-30 16:12:00,
2013-10-30 12:17:00,81.3,68.4,30.10,South,176,9.0,9.0,65,0.00,,---,0.00,VWS V14.01,2013-10-30 16:17:00,
2013-10-30 12:22:00,81.7,68.8,30.10,South,176,5.0,7.0,65,0.00,,---,0.00,VWS V14.01,2013-10-30 16:22:00,
2013-10-30 12:27:00,82.2,69.3,30.10,South,176,2.0,7.0,65,0.00,,---,0.00,VWS V14.01,2013-10-30 16:27:00,
2013-10-30 12:32:00,81.2,69.6,30.09,South,176,0.0,0.0,68,0.00,,---,0.00,VWS V14.01,2013-10-30 16:32:00,
2013-10-30 12:37:00,81.6,69.2,30.09,South,176,9.0,10.0,66,0.00,,---,0.00,VWS V14.01,2013-10-30 16:37:00,
2013-10-30 12:42:00,82.0,70.0,30.09,South,176,7.0,8.0,67,0.00,,---,0.00,VWS V14.01,2013-10-30 16:42:00,
2013-10-30 12:47:00,80.9,68.5,30.08,South,176,8.0,9.0,66,0.00,,---,0.00,VWS V14.01,2013-10-30 16:47:00,
2013-10-30 12:52:00,80.6,68.6,30.08,South,176,2.0,8.0,67,0.00,,---,0.00,VWS V14.01,2013-10-30 16:52:00,
2013-10-30 12:57:00,81.0,67.7,30.08,South,176,0.0,8.0,64,0.00,,---,0.00,VWS V14.01,2013-10-30 16:57:00,
2013-10-30 13:02:00,81.8,68.9,30.08,South,176,1.0,8.0,65,0.00,,---,0.00,VWS V14.01,2013-10-30 17:02:00,
2013-10-30 13:07:00,82.1,68.7,30.08,South,176,6.0,8.0,64,0.00,,---,0.00,VWS V14.01,2013-10-30 17:07:00,
2013-10-30 13:12:00,82.2,68.4,30.08,South,176,2.0,7.0,63,0.00,,---,0.00,VWS V14.01,2013-10-30 17:12:00,
2013-10-30 13:17:00,82.6,69.2,30.07,South,176,1.0,1.0,64,0.00,,---,0.00,VWS V14.01,2013-10-30 17:17:00,
2013-10-30 13:22:00,82.5,69.1,30.07,South,176,1.0,1.0,64,0.00,,---,0.00,VWS V14.01,2013-10-30 17:22:00,
2013-10-30 13:27:00,82.5,70.0,30.07,South,176,0.0,5.0,66,0.00,,---,0.00,VWS V14.01,2013-10-30 17:27:00,
2013-10-30 13:32:00,81.1,69.1,30.07,South,176,7.0,8.0,67,0.00,,---,0.00,VWS V14.01,2013-10-30 17:32:00,
2013-10-30 13:37:00,81.7,69.2,30.07,South,176,9.0,9.0,66,0.00,,---,0.00,VWS V14.01,2013-10-30 17:37:00,
2013-10-30 13:42:00,81.8,69.8,30.07,South,176,4.0,7.0,67,0.00,,---,0.00,VWS V14.01,2013-10-30 17:42:00,
2013-10-30 13:47:00,82.0,68.6,30.05,South,176,5.0,7.0,64,0.00,,---,0.00,VWS V14.01,2013-10-30 17:47:00,
2013-10-30 13:52:00,82.1,68.7,30.05,South,176,8.0,8.0,64,0.00,,---,0.00,VWS V14.01,2013-10-30 17:52:00,
2013-10-30 13:57:00,82.2,68.8,30.05,South,176,2.0,8.0,64,0.00,,---,0.00,VWS V14.01,2013-10-30 17:57:00,
2013-10-30 14:02:00,81.8,69.3,30.05,South,176,0.0,5.0,66,0.00,,---,0.00,VWS V14.01,2013-10-30 18:02:00,
2013-10-30 14:07:00,82.2,69.3,30.05,South,176,0.0,1.0,65,0.00,,---,0.00,VWS V14.01,2013-10-30 18:07:00,
2013-10-30 14:12:00,82.3,68.9,30.05,South,176,8.0,8.0,64,0.00,,---,0.00,VWS V14.01,2013-10-30 18:12:00,
2013-10-30 14:17:00,82.0,69.1,30.05,South,176,0.0,1.0,65,0.00,,---,0.00,VWS V14.01,2013-10-30 18:17:00,
2013-10-30 14:22:00,81.7,68.8,30.05,South,176,7.0,9.0,65,0.00,,---,0.00,VWS V14.01,2013-10-30 18:22:00,
2013-10-30 14:27:00,81.9,68.5,30.05,South,176,5.0,7.0,64,0.00,,---,0.00,VWS V14.01,2013-10-30 18:27:00,
2013-10-30 14:32:00,82.0,69.1,30.04,South,176,0.0,5.0,65,0.00,,---,0.00,VWS V14.01,2013-10-30 18:32:00,
2013-10-30 14:37:00,81.7,69.2,30.04,South,176,10.0,11.0,66,0.00,,---,0.00,VWS V14.01,2013-10-30 18:37:00,
2013-10-30 14:42:00,81.3,69.7,30.04,South,176,0.0,8.0,68,0.00,,---,0.00,VWS V14.01,2013-10-30 18:42:00,
2013-10-30 14:47:00,81.2,69.6,30.03,South,176,10.0,10.0,68,0.00,,---,0.00,VWS V14.01,2013-10-30 18:47:00,
2013-10-30 14:52:00,80.8,69.3,30.03,South,176,8.0,12.0,68,0.00,,---,0.00,VWS V14.01,2013-10-30 18:52:00,
2013-10-30 14:57:00,80.6,68.6,30.03,South,176,9.0,12.0,67,0.00,,---,0.00,VWS V14.01,2013-10-30 18:57:00,
2013-10-30 15:02:00,80.8,69.3,30.03,South,176,7.0,8.0,68,0.00,,---,0.00,VWS V14.01,2013-10-30 19:02:00,
2013-10-30 15:07:00,80.3,69.2,30.03,South,176,7.0,11.0,69,0.00,,---,0.00,VWS V14.01,2013-10-30 19:07:00,
2013-10-30 15:12:00,80.5,69.0,30.03,South,176,10.0,11.0,68,0.00,,---,0.00,VWS V14.01,2013-10-30 19:12:00,
2013-10-30 15:17:00,80.6,69.1,30.03,South,177,8.0,8.0,68,0.00,,---,0.00,VWS V14.01,2013-10-30 19:17:00,
2013-10-30 15:22:00,80.6,69.1,30.03,South,176,9.0,9.0,68,0.00,,---,0.00,VWS V14.01,2013-10-30 19:22:00,
2013-10-30 15:27:00,80.7,69.6,30.03,South,176,0.0,4.0,69,0.00,,---,0.00,VWS V14.01,2013-10-30 19:27:00,
2013-10-30 15:32:00,80.6,68.6,30.03,South,176,8.0,10.0,67,0.00,,---,0.00,VWS V14.01,2013-10-30 19:32:00,
2013-10-30 15:37:00,80.8,68.8,30.03,South,176,8.0,9.0,67,0.00,,---,0.00,VWS V14.01,2013-10-30 19:37:00,
2013-10-30 15:42:00,81.0,69.0,30.03,South,176,7.0,8.0,67,0.00,,---,0.00,VWS V14.01,2013-10-30 19:42:00,
2013-10-30 15:47:00,81.5,69.1,30.02,South,176,8.0,13.0,66,0.00,,---,0.00,VWS V14.01,2013-10-30 19:47:00,
2013-10-30 15:52:00,80.5,67.7,30.02,South,176,7.0,10.0,65,0.00,,---,0.00,VWS V14.01,2013-10-30 19:52:00,
2013-10-30 15:57:00,80.0,68.5,30.02,South,176,9.0,10.0,68,0.00,,---,0.00,VWS V14.01,2013-10-30 19:57:00,
2013-10-30 16:02:00,79.9,68.8,30.02,South,176,4.0,11.0,69,0.00,,---,0.00,VWS V14.01,2013-10-30 20:02:00,
2013-10-30 16:07:00,79.8,68.7,30.02,South,176,7.0,9.0,69,0.00,,---,0.00,VWS V14.01,2013-10-30 20:07:00,
2013-10-30 16:12:00,80.1,68.6,30.02,South,176,6.0,9.0,68,0.00,,---,0.00,VWS V14.01,2013-10-30 20:12:00,
2013-10-30 16:17:00,80.2,69.1,30.02,South,176,11.0,11.0,69,0.00,,---,0.00,VWS V14.01,2013-10-30 20:17:00,
2013-10-30 16:22:00,79.8,68.7,30.02,South,176,10.0,11.0,69,0.00,,---,0.00,VWS V14.01,2013-10-30 20:22:00,
2013-10-30 16:27:00,79.9,68.8,30.02,South,176,2.0,6.0,69,0.00,,---,0.00,VWS V14.01,2013-10-30 20:27:00,
2013-10-30 16:32:00,80.5,69.4,30.02,South,176,5.0,7.0,69,0.00,,---,0.00,VWS V14.01,2013-10-30 20:32:00,
2013-10-30 16:37:00,80.5,69.0,30.02,South,176,4.0,13.0,68,0.00,,---,0.00,VWS V14.01,2013-10-30 20:37:00,
2013-10-30 16:42:00,80.3,68.8,30.02,South,176,8.0,10.0,68,0.00,,---,0.00,VWS V14.01,2013-10-30 20:42:00,
2013-10-30 16:47:00,80.2,68.7,30.01,South,176,1.0,9.0,68,0.00,,---,0.00,VWS V14.01,2013-10-30 20:47:00,
2013-10-30 16:52:00,80.2,69.1,30.01,South,176,9.0,9.0,69,0.00,,---,0.00,VWS V14.01,2013-10-30 20:52:00,
2013-10-30 16:57:00,80.1,68.6,30.01,South,176,7.0,9.0,68,0.00,,---,0.00,VWS V14.01,2013-10-30 20:57:00,
2013-10-30 17:02:00,79.8,68.3,30.01,South,176,9.0,10.0,68,0.00,,---,0.00,VWS V14.01,2013-10-30 21:02:00,
2013-10-30 17:07:00,80.1,67.7,30.01,South,176,2.0,8.0,66,0.00,,---,0.00,VWS V14.01,2013-10-30 21:07:00,
2013-10-30 17:12:00,80.1,69.0,30.01,South,177,4.0,6.0,69,0.00,,---,0.00,VWS V14.01,2013-10-30 21:12:00,
2013-10-30 17:17:00,80.2,69.5,30.00,South,176,2.0,5.0,70,0.00,,---,0.00,VWS V14.01,2013-10-30 21:17:00,
2013-10-30 17:22:00,79.9,68.8,30.00,South,176,1.0,1.0,69,0.00,,---,0.00,VWS V14.01,2013-10-30 21:22:00,
2013-10-30 17:27:00,79.8,68.7,30.00,South,176,6.0,8.0,69,0.00,,---,0.00,VWS V14.01,2013-10-30 21:27:00,
2013-10-30 17:32:00,79.8,69.2,30.01,South,176,0.0,1.0,70,0.00,,---,0.00,VWS V14.01,2013-10-30 21:32:00,
2013-10-30 17:37:00,79.7,68.6,30.01,South,176,7.0,7.0,69,0.00,,---,0.00,VWS V14.01,2013-10-30 21:37:00,
2013-10-30 17:42:00,79.6,68.5,30.01,South,176,0.0,6.0,69,0.00,,---,0.00,VWS V14.01,2013-10-30 21:42:00,
2013-10-30 17:47:00,79.5,68.9,30.02,South,176,0.0,1.0,70,0.00,,---,0.00,VWS V14.01,2013-10-30 21:47:00,
2013-10-30 17:52:00,79.4,68.8,30.02,South,176,6.0,6.0,70,0.00,,---,0.00,VWS V14.01,2013-10-30 21:52:00,
2013-10-30 17:57:00,79.3,69.1,30.02,South,176,0.0,2.0,71,0.00,,---,0.00,VWS V14.01,2013-10-30 21:57:00,
2013-10-30 18:02:00,79.3,69.5,30.01,South,176,0.0,8.0,72,0.00,,---,0.00,VWS V14.01,2013-10-30 22:02:00,
2013-10-30 18:07:00,79.1,69.3,30.01,South,176,0.0,1.0,72,0.00,,---,0.00,VWS V14.01,2013-10-30 22:07:00,
2013-10-30 18:12:00,79.1,68.9,30.01,South,176,0.0,8.0,71,0.00,,---,0.00,VWS V14.01,2013-10-30 22:12:00,
2013-10-30 18:17:00,79.1,68.9,30.02,South,176,0.0,1.0,71,0.00,,---,0.00,VWS V14.01,2013-10-30 22:17:00,
2013-10-30 18:22:00,79.0,68.8,30.02,South,176,0.0,1.0,71,0.00,,---,0.00,VWS V14.01,2013-10-30 22:22:00,
2013-10-30 18:27:00,78.9,68.7,30.02,South,176,8.0,8.0,71,0.00,,---,0.00,VWS V14.01,2013-10-30 22:27:00,
2013-10-30 18:32:00,78.9,69.1,30.02,South,176,0.0,4.0,72,0.00,,---,0.00,VWS V14.01,2013-10-30 22:32:00,
2013-10-30 18:37:00,78.8,69.0,30.02,South,176,5.0,7.0,72,0.00,,---,0.00,VWS V14.01,2013-10-30 22:37:00,
2013-10-30 18:42:00,78.6,68.8,30.02,South,176,2.0,6.0,72,0.00,,---,0.00,VWS V14.01,2013-10-30 22:42:00,
2013-10-30 18:47:00,78.5,69.1,30.01,South,176,2.0,7.0,73,0.00,,---,0.00,VWS V14.01,2013-10-30 22:47:00,
2013-10-30 18:52:00,78.4,69.0,30.01,South,176,0.0,0.0,73,0.00,,---,0.00,VWS V14.01,2013-10-30 22:52:00,
2013-10-30 18:57:00,78.5,69.5,30.01,South,176,5.0,6.0,74,0.00,,---,0.00,VWS V14.01,2013-10-30 22:57:00,
2013-10-30 19:02:00,78.4,69.0,30.02,South,176,5.0,7.0,73,0.00,,---,0.00,VWS V14.01,2013-10-30 23:02:00,
2013-10-30 19:07:00,78.3,67.7,30.02,South,176,0.0,1.0,70,0.00,,---,0.00,VWS V14.01,2013-10-30 23:07:00,
2013-10-30 19:12:00,78.4,68.2,30.02,South,176,5.0,6.0,71,0.00,,---,0.00,VWS V14.01,2013-10-30 23:12:00,
2013-10-30 19:17:00,78.4,68.6,30.02,South,176,2.0,6.0,72,0.00,,---,0.00,VWS V14.01,2013-10-30 23:17:00,
2013-10-30 19:22:00,78.4,68.6,30.02,South,176,1.0,4.0,72,0.00,,---,0.00,VWS V14.01,2013-10-30 23:22:00,
2013-10-30 19:27:00,78.4,69.0,30.02,South,176,4.0,4.0,73,0.00,,---,0.00,VWS V14.01,2013-10-30 23:27:00,
2013-10-30 19:32:00,78.3,69.3,30.03,South,176,0.0,4.0,74,0.00,,---,0.00,VWS V14.01,2013-10-30 23:32:00,
2013-10-30 19:37:00,78.3,69.3,30.03,South,176,1.0,1.0,74,0.00,,---,0.00,VWS V14.01,2013-10-30 23:37:00,
2013-10-30 19:42:00,78.2,69.2,30.03,South,176,1.0,8.0,74,0.00,,---,0.00,VWS V14.01,2013-10-30 23:42:00,
2013-10-30 19:47:00,78.3,69.7,30.03,South,176,0.0,1.0,75,0.00,,---,0.00,VWS V14.01,2013-10-30 23:47:00,
2013-10-30 19:52:00,78.2,69.2,30.03,South,176,4.0,8.0,74,0.00,,---,0.00,VWS V14.01,2013-10-30 23:52:00,
2013-10-30 19:57:00,78.3,69.7,30.03,South,176,2.0,5.0,75,0.00,,---,0.00,VWS V14.01,2013-10-30 23:57:00,
2013-10-30 20:02:00,78.2,68.8,30.03,South,176,2.0,4.0,73,0.00,,---,0.00,VWS V14.01,2013-10-31 00:02:00,
2013-10-30 20:07:00,78.2,68.8,30.03,South,176,2.0,6.0,73,0.00,,---,0.00,VWS V14.01,2013-10-31 00:07:00,
2013-10-30 20:12:00,78.2,68.8,30.03,South,176,0.0,0.0,73,0.00,,---,0.00,VWS V14.01,2013-10-31 00:12:00,
2013-10-30 20:17:00,78.3,69.3,30.03,South,176,0.0,1.0,74,0.00,,---,0.00,VWS V14.01,2013-10-31 00:17:00,
2013-10-30 20:22:00,78.3,69.7,30.03,South,176,4.0,7.0,75,0.00,,---,0.00,VWS V14.01,2013-10-31 00:22:00,
2013-10-30 20:27:00,78.4,69.8,30.03,South,176,4.0,11.0,75,0.00,,---,0.00,VWS V14.01,2013-10-31 00:27:00,
2013-10-30 20:32:00,78.4,70.2,30.03,South,176,0.0,5.0,76,0.00,,---,0.00,VWS V14.01,2013-10-31 00:32:00,
2013-10-30 20:37:00,78.3,69.3,30.03,South,176,1.0,11.0,74,0.00,,---,0.00,VWS V14.01,2013-10-31 00:37:00,
2013-10-30 20:42:00,78.3,68.9,30.03,South,176,5.0,9.0,73,0.00,,---,0.00,VWS V14.01,2013-10-31 00:42:00,
2013-10-30 20:47:00,78.4,69.4,30.03,South,176,7.0,11.0,74,0.00,,---,0.00,VWS V14.01,2013-10-31 00:47:00,
2013-10-30 20:52:00,78.4,69.4,30.03,South,176,7.0,8.0,74,0.00,,---,0.00,VWS V14.01,2013-10-31 00:52:00,
2013-10-30 20:57:00,78.4,69.8,30.03,South,176,1.0,12.0,75,0.00,,---,0.00,VWS V14.01,2013-10-31 00:57:00,
2013-10-30 21:02:00,78.3,69.7,30.03,South,176,5.0,7.0,75,0.00,,---,0.00,VWS V14.01,2013-10-31 01:02:00,
2013-10-30 21:07:00,78.2,69.2,30.03,South,176,6.0,7.0,74,0.00,,---,0.00,VWS V14.01,2013-10-31 01:07:00,
2013-10-30 21:12:00,78.2,68.8,30.03,South,176,5.0,7.0,73,0.00,,---,0.00,VWS V14.01,2013-10-31 01:12:00,
2013-10-30 21:17:00,78.2,68.8,30.03,South,176,4.0,7.0,73,0.00,,---,0.00,VWS V14.01,2013-10-31 01:17:00,
2013-10-30 21:22:00,78.2,68.8,30.03,South,176,5.0,7.0,73,0.00,,---,0.00,VWS V14.01,2013-10-31 01:22:00,
2013-10-30 21:27:00,78.3,69.3,30.03,South,176,7.0,9.0,74,0.00,,---,0.00,VWS V14.01,2013-10-31 01:27:00,
2013-10-30 21:32:00,78.3,68.9,30.03,South,176,0.0,6.0,73,0.00,,---,0.00,VWS V14.01,2013-10-31 01:32:00,
2013-10-30 21:37:00,78.2,68.8,30.03,South,177,5.0,7.0,73,0.00,,---,0.00,VWS V14.01,2013-10-31 01:37:00,
2013-10-30 21:42:00,78.1,67.5,30.03,South,176,4.0,9.0,70,0.00,,---,0.00,VWS V14.01,2013-10-31 01:42:00,
2013-10-30 21:47:00,78.2,67.6,30.04,South,176,1.0,7.0,70,0.00,,---,0.00,VWS V14.01,2013-10-31 01:47:00,
2013-10-30 21:52:00,78.3,67.3,30.04,South,176,4.0,7.0,69,0.00,,---,0.00,VWS V14.01,2013-10-31 01:52:00,
2013-10-30 21:57:00,78.4,67.8,30.04,South,176,2.0,10.0,70,0.00,,---,0.00,VWS V14.01,2013-10-31 01:57:00,
2013-10-30 22:02:00,78.3,67.7,30.03,South,176,5.0,11.0,70,0.00,,---,0.00,VWS V14.01,2013-10-31 02:02:00,
2013-10-30 22:07:00,78.4,68.2,30.03,South,176,5.0,7.0,71,0.00,,---,0.00,VWS V14.01,2013-10-31 02:07:00,
2013-10-30 22:12:00,78.4,68.6,30.03,South,176,1.0,7.0,72,0.00,,---,0.00,VWS V14.01,2013-10-31 02:12:00,
2013-10-30 22:17:00,78.3,68.5,30.03,South,176,8.0,8.0,72,0.00,,---,0.00,VWS V14.01,2013-10-31 02:17:00,
2013-10-30 22:22:00,78.3,68.9,30.03,South,176,6.0,9.0,73,0.00,,---,0.00,VWS V14.01,2013-10-31 02:22:00,
2013-10-30 22:27:00,78.3,69.7,30.03,South,176,8.0,8.0,75,0.00,,---,0.00,VWS V14.01,2013-10-31 02:27:00,
2013-10-30 22:32:00,78.2,69.2,30.03,South,176,8.0,10.0,74,0.00,,---,0.00,VWS V14.01,2013-10-31 02:32:00,
2013-10-30 22:37:00,78.1,68.3,30.03,South,176,5.0,10.0,72,0.00,,---,0.00,VWS V14.01,2013-10-31 02:37:00,
2013-10-30 22:42:00,78.1,68.3,30.03,South,176,7.0,9.0,72,0.00,,---,0.00,VWS V14.01,2013-10-31 02:42:00,
2013-10-30 22:47:00,78.1,68.3,30.03,South,176,6.0,9.0,72,0.00,,---,0.00,VWS V14.01,2013-10-31 02:47:00,
2013-10-30 22:52:00,78.1,67.9,30.03,South,176,1.0,8.0,71,0.00,,---,0.00,VWS V14.01,2013-10-31 02:52:00,
2013-10-30 22:57:00,78.2,68.0,30.03,South,176,8.0,10.0,71,0.00,,---,0.00,VWS V14.01,2013-10-31 02:57:00,
2013-10-30 23:00:00,78.2,68.8,30.03,South,176,6.0,10.0,73,0.00,,---,0.00,VWS V14.01,2013-10-31 03:00:00,
2013-10-30 23:05:00,78.2,69.2,30.03,South,176,7.0,12.0,74,0.00,,---,0.00,VWS V14.01,2013-10-31 03:05:00,
2013-10-30 23:10:00,78.1,68.8,30.03,South,176,16.0,16.0,73,0.00,,---,0.00,VWS V14.01,2013-10-31 03:10:00,
2013-10-30 23:15:00,78.0,68.2,30.03,South,176,8.0,14.0,72,0.00,,---,0.00,VWS V14.01,2013-10-31 03:15:00,
2013-10-30 23:20:00,78.0,67.4,30.03,South,176,7.0,10.0,70,0.00,,---,0.00,VWS V14.01,2013-10-31 03:20:00,
2013-10-30 23:25:00,78.1,68.8,30.03,South,176,10.0,10.0,73,0.00,,---,0.00,VWS V14.01,2013-10-31 03:25:00,
2013-10-30 23:30:00,78.2,68.8,30.03,South,176,6.0,15.0,73,0.00,,---,0.00,VWS V14.01,2013-10-31 03:30:00,
2013-10-30 23:35:00,78.1,69.1,30.02,South,176,7.0,10.0,74,0.00,,---,0.00,VWS V14.01,2013-10-31 03:35:00,
2013-10-30 23:40:00,78.0,69.4,30.02,South,176,1.0,11.0,75,0.00,,---,0.00,VWS V14.01,2013-10-31 03:40:00,
2013-10-30 23:45:00,78.0,69.4,30.02,South,176,6.0,13.0,75,0.00,,---,0.00,VWS V14.01,2013-10-31 03:45:00,
2013-10-30 23:50:00,78.1,69.9,30.02,South,176,2.0,11.0,76,0.00,,---,0.00,VWS V14.01,2013-10-31 03:50:00,
2013-10-30 23:55:00,77.9,68.9,30.02,South,176,7.0,14.0,74,0.00,,---,0.00,VWS V14.01,2013-10-31 03:55:00,